Location: Champs
(48.8539°N, 2.6040°E)
Time: 04:52:50
(UTC+00:00)

Cosmos 1538 Rocket - Visible Passes

Search period start: 26 May 2022 00:00
Search period end: 05 June 2022 00:00
Orbit: 751 x 792 km, 74.0° (Epoch: 25 May)

Date Brightness Start Highest point End Pass type
(mag) Time Alt. Az. Time Alt. Az. Time Alt. Az.
26 May 4.1 21:15:20 10° NNW 21:20:35 65° ENE 21:24:18 19° SE visible
26 May 5.9 22:58:29 10° NW 23:02:11 20° W 23:04:39 14° SW visible
27 May 4.7 20:39:29 10° NNW 20:44:31 43° ENE 20:49:07 12° SE visible
27 May 5.3 22:21:56 10° NW 22:26:30 31° W 22:29:27 18° SSW visible
28 May 4.6 21:45:41 10° NNW 21:50:43 49° WSW 21:54:18 18° S visible
29 May 4.1 21:09:35 10° NNW 21:14:51 77° WSW 21:19:10 15° SSE visible
29 May 6.4 22:54:29 10° WNW 22:56:01 11° W 22:57:32 10° WSW visible
30 May 4.1 20:33:38 10° NNW 20:38:52 69° ENE 20:44:02 10° SSE visible
30 May 6.1 22:16:55 10° NW 22:20:26 19° W 22:23:56 10° SW visible
31 May 5.5 21:40:18 10° NW 21:44:45 29° W 21:49:10 10° SSW visible
01 Jun 4.8 21:04:00 10° NNW 21:08:59 46° WSW 21:13:54 10° S visible
02 Jun 4.2 20:27:54 10° NNW 20:33:07 73° WSW 20:38:16 10° SSE visible
02 Jun 6.6 22:13:21 10° W 22:14:15 10° W 22:15:10 10° W visible
03 Jun 6.3 21:35:19 10° NW 21:38:40 17° W 21:42:00 10° SW visible
04 Jun 5.7 20:58:39 10° NW 21:03:00 27° W 21:07:19 10° SSW visible
